This is the latest recevied weather packets stored in our database for station/object G1SCQ. If no packets are shown the sender has not sent any weather packets the latest 10 day(s).
| Time | Temp. | Humidity | Pressure | Rain* | Wind** | Luminosity | Snow |
|---|---|---|---|---|---|---|---|
| 1778133604 | 5° C | 99% | 1016.4 hPa | 0 mm | - | 49 W/m² | - |
| 1778133244 | 5° C | 99% | 1016.4 hPa | 0 mm | - | 40 W/m² | - |
| 1778132704 | 5° C | 98% | 1016 hPa | 0 mm | - | 35 W/m² | - |
| 1778132164 | 5° C | 99% | 1016.2 hPa | 0 mm | - | 34 W/m² | - |
| 1778131624 | 5° C | 98% | 1016.2 hPa | 0 mm | - | 34 W/m² | - |
| 1778131084 | 4.44° C | 99% | 1016 hPa | 0 mm | - | 40 W/m² | - |
| 1778130544 | 3.89° C | 98% | 1016 hPa | 0 mm | - | 28 W/m² | - |
| 1778130004 | 3.33° C | 98% | 1015.9 hPa | 0 mm | - | 23 W/m² | - |
| 1778129644 | 3.33° C | 98% | 1015.9 hPa | 0 mm | - | 17 W/m² | - |
| 1778129104 | 3.89° C | 98% | 1015.9 hPa | 0 mm | - | 12 W/m² | - |
| 1778128564 | 3.89° C | 98% | 1015.9 hPa | 0 mm | - | 8 W/m² | - |
| 1778128024 | 3.89° C | 98% | 1015.9 hPa | 0 mm | - | 5 W/m² | - |
| 1778127484 | 4.44° C | 98% | 1015.9 hPa | 0 mm | - | 3 W/m² | - |
| 1778126944 | 4.44° C | 98% | 1015.8 hPa | 0 mm | - | 1 W/m² | - |
| 1778126404 | 4.44° C | 97% | 1015.7 hPa | 0 mm | - | 0 W/m² | - |
| 1778126044 | 4.44° C | 97% | 1015.6 hPa | 0 mm | - | 0 W/m² | - |
| 1778125504 | 4.44° C | 97% | 1015.7 hPa | 0 mm | - | 0 W/m² | - |
| 1778124964 | 5° C | 97% | 1015.6 hPa | 0 mm | - | 0 W/m² | - |
| 1778124424 | 5.56° C | 97% | 1015.6 hPa | 0 mm | - | 0 W/m² | - |
| 1778123884 | 5.56° C | 97% | 1015.6 hPa | 0 mm | - | 0 W/m² | - |
| 1778123344 | 5.56° C | 96% | 1015.6 hPa | 0 mm | - | 0 W/m² | - |
| 1778122804 | 5.56° C | 96% | 1015.6 hPa | 0 mm | - | 0 W/m² | - |
| 1778122444 | 5.56° C | 96% | 1015.7 hPa | 0 mm | - | 0 W/m² | - |
| 1778121904 | 5.56° C | 95% | 1015.6 hPa | 0 mm | - | 0 W/m² | - |
| 1778121364 | 5.56° C | 95% | 1015.6 hPa | 0 mm | - | 0 W/m² | - |
* Rain latest hour (hover to see other rain measurements)
** Current wind speed in m/s (hover to see current wind gust speed)